EGLLEGLC

Guest
Details From EGLL - London Heathrow
To EGLC - London City
Flight Number -
Tags Routegen
Created
Modified
Stats Distance 20 nm / 37 km
Max Altitude 0 ft / 0 m
Waypoints 2
Social Downloads 20
Likes 0
Share

Download

Looking for another format? Having issues loading an existing format? Contact us
Advertisement - Login to hide

Notes

None

Route

EGLL EGLC

ID Type Via Altitude (ft/m) Position (lat/lon) Dist (leg/tot) Name
O EGLL APT - 0 / 0 51.47747 / -0.48963 - / 0 nm
O EGLC APT - 0 / 0 51.50558 / 0.04414 20 / 20 nm

Altitude Profile

Advertisement - Login to hide

EGLL

Details ICAO EGLL (LHR)
Name London Heathrow
Region United Kingdom
Timezone Europe/London (UTC+1.0)
Stats Elevation 83 ft / 25 m (AMSL)
Location 51.471200° -0.460881°
Runways 2
Magnetic Variation 0.240° E

METAR

EGLL 312320Z AUTO 06009KT 9999 OVC015 12/08 Q1026

Decode

TAF

TAF EGLL 312253Z 0100/0206 05010KT 9999 OVC012 PROB30 TEMPO 0101/0107 BKN008 BECMG 0107/0110 SCT020

Decode

Departure Runways

ID Width Length Bearing (true/mag) Surface Threshold Overrun Markings Lighting
09L 164 ft / 50 m 12,770 ft / 3,892 m 89.66° / 89.42° ASPHALT 1,007 ft / 307 m 0 ft / 0 m PREC-APP CENTERLINE EDGE THRESHOLD CALVERT-ILS TDZ REIL-OMNI
09R 164 ft / 50 m 11,975 ft / 3,650 m 89.68° / 89.44° ASPHALT 1,004 ft / 306 m 0 ft / 0 m PREC-APP CENTERLINE EDGE THRESHOLD CALVERT-ILS TDZ REIL-OMNI
27L 164 ft / 50 m 11,975 ft / 3,650 m 269.72° / 269.48° ASPHALT 0 ft / 0 m 95 ft / 29 m PREC-APP CENTERLINE EDGE THRESHOLD CALVERT-ILS TDZ REIL-OMNI
27R 164 ft / 50 m 12,770 ft / 3,892 m 269.70° / 269.47° ASPHALT 0 ft / 0 m 177 ft / 54 m PREC-APP CENTERLINE EDGE THRESHOLD CALVERT-ILS TDZ REIL-OMNI

EGLC

Details ICAO EGLC (LCY)
Name London City
Region United Kingdom
Timezone Europe/London (UTC+1.0)
Stats Elevation 19 ft / 6 m (AMSL)
Location 51.505200° 0.055176°
Runways 1
Magnetic Variation 0.412° E

METAR

EGLC 312320Z AUTO 06008KT 350V100 9999 OVC013 12/08 Q1027

Decode

TAF

Not found

Destination Runways

ID Width Length Bearing (true/mag) Surface Threshold Overrun Markings Lighting
09 98 ft / 30 m 4,916 ft / 1,498 m 92.88° / 92.47° ASPHALT 315 ft / 96 m 190 ft / 58 m UK-PREC-APP CENTERLINE EDGE THRESHOLD CALVERT REIL-OMNI
27 98 ft / 30 m 4,916 ft / 1,498 m 272.90° / 272.49° ASPHALT 230 ft / 70 m 302 ft / 92 m UK-PREC-APP CENTERLINE EDGE THRESHOLD CALVERT REIL-OMNI

Approach Navaids

Runway Type Ident Frequency Range Bearing (true/mag) Slope Elevation
09 DME ILST 111.15 MHz 18 nm / 33 km - - 48 ft / 15 m (AMSL)
09 GS ILST 111.15 MHz 10 nm / 19 km 92.89° / 92.48 ° 5.50° 19 ft / 6 m (AMSL)
09 LOC-ILS ILST 111.15 MHz 18 nm / 33 km 92.89° / 92.48 ° - 19 ft / 6 m (AMSL)
27 LOC-ILS ILSR 111.15 MHz 18 nm / 33 km 272.89° / 272.48 ° - 19 ft / 6 m (AMSL)
27 DME ILSR 111.15 MHz 18 nm / 33 km - - 48 ft / 15 m (AMSL)
27 GS ILSR 111.15 MHz 10 nm / 19 km 272.89° / 272.48 ° 5.50° 19 ft / 6 m (AMSL)

Popular Alternatives